Regional Weather Roundup
Issued by NWS Charleston, SC

Current Version | Previous Version | Graphics & Text | Print | Product List | Glossary On
Versions: 1 2 3 4 5 6 7 8 9 10 11 12 13 14 15 16 17 18 19 20 21 22 23 24 25 26 27 28 29 30 31 32 33 34 35 36 37 38 39 40 41 42 43 44 45 46 47 48 49 50
000
ASUS42 KCHS 050627
RWRCHS

REGIONAL WEATHER ROUNDUP
NATIONAL WEATHER SERVICE CHARLESTON SC
100 AM EST THU MAR 05 2015

NOTE: "FAIR" INDICATES FEW OR NO CLOUDS BELOW 12,000 FEET WITH NO
SIGNIFICANT WEATHER AND/OR OBSTRUCTIONS TO VISIBILITY.

NOT ALL STATIONS ARE QUALITY CONTROLLED BY THE NATIONAL
WEATHER SERVICE. USE DATA WITH CAUTION...ESPECIALLY
DEWPOINT OBSERVATIONS.

SCZ027-030-031-034>040-042>050-050700-
...SOUTHEAST SOUTH CAROLINA...

CITY           SKY/WX    TMP DP  RH WIND       PRES   REMARKS
N CHARLESTON   PTCLDY    63  60  90 SW8       30.01F
6HR MIN TEMP:  63; 6HR MAX TEMP:  67;

WATERFRONT PRK   N/A     63 N/A N/A SW14G20     N/A
MOUNT PLEASANT FAIR      64  63  94 SW10G17   30.01F
PINOPOLIS      NOT AVBL
MONCKS CORNER  FAIR      66  61  82 SW7       29.99S
SUMMERVILLE    FAIR      64  63  94 S5        30.00F
BEAUFORT MCAS  CLEAR     60  58  92 S3        30.01F
6HR MIN TEMP:  60; 6HR MAX TEMP:  67;

BEAUFORT ARPT  FAIR      59  59 100 CALM      30.01F
HILTON HEAD IS CLEAR     61  59  94 S5        30.04S
WALTERBORO     CLEAR     64  63  94 S8        30.00F
ALLENDALE      FAIR      68  61  77 S6        29.97S

...SOUTHERN MIDLANDS AND PEE DEE...

CITY           SKY/WX    TMP DP  RH WIND       PRES   REMARKS
GEORGETOWN     NOT AVBL
KINGSTREE      NOT AVBL
ORANGEBURG     CLEAR     66  59  78 SW14      29.96F
6HR MIN TEMP:  65; 6HR MAX TEMP:  72;

BARNWELL       FAIR      66  61  82 SW9       29.97S
AIKEN          FAIR      68  59  73 SW12G17   29.98S
MANNING        FAIR      64  61  88 S6        29.96F
COLUMBIA       PTCLDY    65  56  72 S6        29.93S
6HR MIN TEMP:  65; 6HR MAX TEMP:  73;

SUMTER         CLEAR     64  60  87 S13       29.92F
6HR MIN TEMP:  62; 6HR MAX TEMP:  69;

FLORENCE       CLEAR     66  61  84 S12       29.94S
6HR MIN TEMP:  66; 6HR MAX TEMP:  73;

MYRTLE BEACH   PTCLDY    66  61  82 S13       30.01S
N MYRTLE BEACH FOG       60  59  96 SW18      29.98F VSB 1/4
6HR MIN TEMP:  57; 6HR MAX TEMP:  63;


$$

GAZ063-065-086>088-099>101-113>116-118-119-134>141-150-050700-
...SOUTHEAST GEORGIA...

CITY           SKY/WX    TMP DP  RH WIND       PRES   REMARKS
SAVANNAH ARPT  PTCLDY    65  60  84 S6        30.02F
6HR MIN TEMP:  62; 6HR MAX TEMP:  70;

HUNTER AAF     CLEAR     60  60 100 S5        30.01
6HR MIN TEMP:  60; 6HR MAX TEMP:  68;

FORT STEWART   CLOUDY    69  64  82 SW7       30.01S
6HR MIN TEMP:  67; 6HR MAX TEMP:  76;

STATESBORO     CLEAR     68  64  86 S7        30.00S
SYLVANIA       CLEAR     67  64  87 SW6       30.00F
CLAXTON        FAIR      68  64  88 SW6       30.01F

...CSRA...CENTRAL AND FAR SOUTHEAST GEORGIA...

CITY           SKY/WX    TMP DP  RH WIND       PRES   REMARKS
THOMSON        CLOUDY    69  64  84 SW8       29.99S
AUGUSTA-BUSH   CLEAR     68  59  73 SW10      29.95S
6HR MIN TEMP:  65; 6HR MAX TEMP:  72;

AUGUSTA-DANIEL CLEAR     69  59  70 SW10      29.96R
SWAINSBORO     FAIR      70  59  68 SW7       30.00S
VIDALIA        CLEAR     68  64  88 SW12      30.01F
EASTMAN        CLOUDY    68  68 100 SW9       30.02S
HAZLEHURST     FAIR      69  67  93 SW6       30.01F
ALMA           CLOUDY    67  64  90 S3        30.03S
6HR MIN TEMP:  67; 6HR MAX TEMP:  75;

WAYCROSS       CLOUDY    72  69  92 SW6       30.04S
JESUP          FAIR      68  64  88 W5        30.03F
BAXLEY         CLOUDY    70  64  83 SW3       30.03S
BRUNSWICK      CLEAR     59  55  88 CALM      30.05S
SAINT SIMONS   CLEAR     59  56  89 S6        30.04F
6HR MIN TEMP:  58; 6HR MAX TEMP:  62;


$$

SCZ027-028-034-036>038-045-046-048>050-GAZ119-141-050700-
...LAKE AND SUPPLEMENTAL COASTAL OBSERVATIONS...

STATION/POSITION TIME  TEMP    WIND        PRES    WAVE   SWELL
                       AIR SEA DIR/SP/G            HT/PER HT/PER/DIR
                 (UTC) (F)     (DEG/KT/KT) (MB)    (FT/S) (FT/S/D)
UPR LAKE MARION  NOT AVBL
WINYAH BAY       0500   69     220/ 15     1015.0
LAKE MURRAY      0600   61     210/ 10/ 12 1012.9S
ACE BASIN NERRS  NOT AVBL
FORT PULASKI     0600   58 52  190/  5/  9 1017.4F
SAPELO ISLAND    0600   60     160/  7     1017.0S

$$

ANZ835-935-AMZ111-154-330-350-352-354-370-450-454-472-050700-
...C-MAN AND BUOY OBSERVATIONS...

STATION/POSITION TIME  TEMP    WIND        PRES    WAVE   SWELL
                       AIR SEA DIR/SP/G            HT/PER HT/PER/DIR
                 (UTC) (F)     (DEG/KT/KT) (MB)    (FT/S) (FT/S/D)
BUOY 41004       0550   71 69  210/ 16/ 17 1016.3R   7/ 7   3/10
BUOY 41008       0550   58 53  200/ 10/ 12 1017.4S   3/ 6   2/120/ 6
FOLLY BEACH CMAN 0600   54     220/ 10/ 14 1017.1F
CAPERS NEARSHORE 0500   53     240/  8/ 10   N/A
FRIPP NEARSHORE  0500   54     200/ 10/ 12 1017.0F


STATION/POSITION TIME  TEMP    WIND        PRES    WAVE   SWELL
                       AIR SEA DIR/SP/G            HT/PER HT/PER/DIR
                 (UTC) (F)     (DEG/KT/KT) (MB)    (FT/S) (FT/S/D)
5E ST. MARYS GA  0521      55                N/A     3/ 5   2/110/11
FRYING PAN BUOY  0550   69 62  200/ 17/ 21 1016.5F   6/ 7   2/110/11
BUOY 41025       NOT AVBL
CAPE LOOKOUT NC  0600   59     220/ 11/ 16 1015.5F
BUOY 41002       0550   73 74  220/ 19/ 23 1020.7F   6/ 9   3/140/ 9
BUOY 41010       0520   74 74  160/ 17/ 19 1020.3F
ST AUGUSTINE FL  0600   65     180/  4/  5 1018.9F


$$



USA.gov is the U.S. government's official web portal to all federal, state and local government web resources and services.